TimeCST,TemperatureF,Dew PointF,Humidity,Sea Level PressureIn,VisibilityMPH,Wind Direction,Wind SpeedMPH,Gust SpeedMPH,PrecipitationIn,Events,Conditions,WindDirDegrees,DateUTC
12:54 AM,32.0,28.9,88,29.92,7.0,NNE,3.5,-,N/A,,Clear,20,2012-12-19 06:54:00
1:54 AM,32.0,28.9,88,29.94,6.0,ENE,3.5,-,N/A,,Scattered Clouds,60,2012-12-19 07:54:00
2:08 AM,32.0,28.4,87,29.94,6.0,Calm,Calm,-,N/A,,Mostly Cloudy,0,2012-12-19 08:08:00
2:54 AM,30.9,28.0,89,29.97,6.0,Calm,Calm,-,N/A,,Overcast,0,2012-12-19 08:54:00
3:54 AM,30.9,28.0,89,29.97,6.0,SSE,3.5,-,N/A,,Overcast,150,2012-12-19 09:54:00
4:12 AM,30.2,28.4,93,29.96,5.0,SSE,3.5,-,N/A,,Scattered Clouds,160,2012-12-19 10:12:00
4:54 AM,30.9,28.0,89,29.98,5.0,Calm,Calm,-,N/A,,Clear,0,2012-12-19 10:54:00
5:54 AM,30.9,28.0,89,29.98,6.0,ENE,3.5,-,N/A,,Clear,70,2012-12-19 11:54:00
6:54 AM,32.0,28.9,88,29.97,6.0,ENE,9.2,-,N/A,,Clear,60,2012-12-19 12:54:00
7:54 AM,33.1,30.0,89,30.00,5.0,East,6.9,-,N/A,,Clear,80,2012-12-19 13:54:00
8:54 AM,33.1,30.0,89,30.01,5.0,East,4.6,-,N/A,,Partly Cloudy,90,2012-12-19 14:54:00
9:54 AM,35.1,30.9,85,30.01,5.0,East,6.9,-,N/A,,Overcast,90,2012-12-19 15:54:00
10:54 AM,36.0,30.9,82,29.98,6.0,East,12.7,-,N/A,,Haze,100,2012-12-19 16:54:00
11:54 AM,37.0,30.9,79,29.96,7.0,ESE,10.4,-,N/A,,Overcast,110,2012-12-19 17:54:00
12:54 PM,37.9,30.9,76,29.96,8.0,SE,8.1,-,N/A,,Overcast,130,2012-12-19 18:54:00
1:54 PM,37.0,32.0,82,29.91,5.0,East,10.4,-,0.00,Rain,Light Rain,90,2012-12-19 19:54:00
2:54 PM,37.0,33.1,86,29.87,5.0,East,12.7,-,0.00,,Mostly Cloudy,90,2012-12-19 20:54:00
3:09 PM,37.4,33.8,87,29.84,5.0,East,15.0,23.0,N/A,,Mostly Cloudy,90,2012-12-19 21:09:00
3:54 PM,37.0,34.0,89,29.85,5.0,East,13.8,-,N/A,,Overcast,90,2012-12-19 21:54:00
4:54 PM,37.0,34.0,89,29.81,6.0,East,15.0,-,N/A,,Overcast,80,2012-12-19 22:54:00
5:16 PM,37.4,33.8,87,29.80,6.0,East,13.8,-,N/A,,Overcast,80,2012-12-19 23:16:00
5:54 PM,37.9,34.0,86,29.82,6.0,East,11.5,-,N/A,,Overcast,90,2012-12-19 23:54:00
6:03 PM,37.4,33.8,87,29.80,6.0,East,12.7,20.7,N/A,,Overcast,90,2012-12-20 00:03:00
6:26 PM,37.4,35.6,93,29.79,2.5,East,11.5,-,0.00,Rain,Light Rain,100,2012-12-20 00:26:00
6:35 PM,37.4,35.6,93,29.77,2.5,East,13.8,21.9,0.00,Rain,Light Rain,100,2012-12-20 00:35:00
6:54 PM,37.9,35.1,89,29.77,2.5,East,12.7,-,0.00,Rain,Light Rain,100,2012-12-20 00:54:00
7:36 PM,37.4,35.6,93,29.72,3.0,ESE,20.7,27.6,0.00,,Overcast,110,2012-12-20 01:36:00
7:54 PM,37.9,36.0,93,29.72,3.0,ESE,15.0,24.2,0.00,,Overcast,120,2012-12-20 01:54:00
8:54 PM,39.0,37.0,93,29.68,4.0,ESE,17.3,-,N/A,,Overcast,120,2012-12-20 02:54:00
9:38 PM,39.2,37.4,93,29.61,4.0,ESE,16.1,26.5,0.01,Rain-Thunderstorm,Light Rain,120,2012-12-20 03:38:00
9:49 PM,39.2,37.4,93,29.59,2.0,ESE,17.3,24.2,0.13,Rain-Thunderstorm,Heavy Thunderstorms and Rain,110,2012-12-20 03:49:00
9:54 PM,39.9,37.9,93,29.60,3.0,ESE,16.1,24.2,0.13,Rain-Thunderstorm,Light Thunderstorms and Rain,110,2012-12-20 03:54:00
10:07 PM,41.0,37.4,87,29.57,6.0,ESE,17.3,24.2,0.00,Rain,Light Rain,120,2012-12-20 04:07:00
10:54 PM,41.0,39.9,96,29.55,4.0,ESE,12.7,-,0.00,Rain,Light Rain,120,2012-12-20 04:54:00
11:54 PM,42.8,41.0,93,29.49,4.0,SE,12.7,-,N/A,,Overcast,130,2012-12-20 05:54:00